Regional Weather Roundup
Issued by NWS

Home | Current Version | Previous Version | Graphics & Text | Print | Product List | Glossary On
Versions: 1 2 3 4 5 6 7 8 9 10 11 12 13 14 15 16 17 18 19 20 21 22 23 24 25 26 27 28 29 30 31 32 33 34 35 36 37 38 39 40 41 42 43 44 45 46 47 48 49 50
000
ASUS43 KIND 241209
RWRIN

WEATHER ROUNDUP FOR INDIANA
NATIONAL WEATHER SERVICE INDIANAPOLIS IN
800 AM EDT SUN SEP 24 2017

NOTE: "FAIR" INDICATES FEW OR NO CLOUDS BELOW 12,000 FEET WITH NO
SIGNIFICANT WEATHER AND/OR OBSTRUCTIONS TO VISIBILITY.

* - STATION DOES NOT REPORT WEATHER SUCH AS PRECIPITATION OR FOG.

+ - STATION NOT QUALITY CONTROLLED BY THE NATIONAL WEATHER SERVICE.
    USE DATA WITH CAUTION...ESPECIALLY DEWPOINT AND RELATIVE
    HUMIDITY OBSERVATIONS.

INZ001>003-010>013-019-020-241300-
NORTHWEST INDIANA

CITY           SKY/WX    TMP DP  RH WIND       PRES   REMARKS
GARY /AIRPORT/ CLEAR     68  64  88 SE5       30.10R
KNOX *+        CLEAR     61  59  94 CALM      30.12S
LA PORTE +     CLEAR     63  61  92 CALM      30.14R
6HR MIN TEMP:  61; 6HR MAX TEMP:  70;

MICHIGAN CITY+ CLEAR     68  61  77 SE3       30.12S
MONTICELLO +   CLEAR     64  63  95 CALM      30.12R FOG
6HR MIN TEMP:  62; 6HR MAX TEMP:  69;

RENSSELAER +   CLEAR     63  59  88 NE5       30.12R HAZE
VALPARAISO     CLEAR     64  62  93 E5        30.12S FOG
6HR MIN TEMP:  64; 6HR MAX TEMP:  70;


$$

LMZ046-743>745-241300-
SOUTHERN LAKE MICHIGAN

STATION/POSITION TIME  TEMP    WIND        PRES    WAVE
                       AIR SEA DIR/SP/G            HT
                 (UTC) (F)     (DEG/KT/KT) (MB)    (FT)
BURNS HARBOR     1140   72     150/  7/ 12 1019.6R
MICHIGAN CITY    1140   70     130/ 11/ 12   N/A
5NW MICH CITY    1200   71 72  160/ 10/ 12   N/A     1

$$

INZ004-005-014>016-021>024-241300-
NORTH CENTRAL INDIANA

CITY           SKY/WX    TMP DP  RH WIND       PRES   REMARKS
GOSHEN         CLEAR     63  58  83 CALM      30.14R
6HR MIN TEMP:  62; 6HR MAX TEMP:  70;

LOGANSPORT +   CLEAR     63  61  94 NE3       30.13S
PERU/GRISSOM   CLEAR     64  61  88 E3        30.12R
6HR MIN TEMP:  64; 6HR MAX TEMP:  70;

SOUTH BEND     CLEAR     66  63  90 CALM      30.14R
6HR MIN TEMP:  65; 6HR MAX TEMP:  72;

WARSAW +       CLEAR     61  61 100 CALM      30.14S

$$

INZ006>009-017-018-025>027-241300-
NORTHEAST INDIANA

CITY           SKY/WX    TMP DP  RH WIND       PRES   REMARKS
AUBURN +       CLEAR     63  57  82 CALM      30.16R
FORT WAYNE     CLEAR     62  58  86 NE3       30.15R
6HR MIN TEMP:  61; 6HR MAX TEMP:  68;

HUNTINGTON +   CLEAR     60  59  96 CALM      30.14R
6HR MIN TEMP:  60; 6HR MAX TEMP:  66;

KENDALLVILLE + CLEAR     62  59  89 CALM      30.16S

$$

INZ028-029-035-036-043>045-051>053-241300-
WEST CENTRAL INDIANA

CITY           SKY/WX    TMP DP  RH WIND       PRES   REMARKS
GREENCASTLE +  CLEAR     63  61  94 CALM      30.11S FOG
LAFAYETTE      CLEAR     63  63 100 CALM      30.11R FOG
6HR MIN TEMP:  63; 6HR MAX TEMP:  68;

TERRE HAUTE    CLEAR     61  60  97 CALM      30.10R
6HR MIN TEMP:  60; 6HR MAX TEMP:  64;


$$

INZ030>032-037>040-046>048-054>057-064-065-241300-
CENTRAL INDIANA

CITY           SKY/WX    TMP DP  RH WIND       PRES   REMARKS
CP ATTERBURY + FOG       57  55  94 CALM      30.12R VSB 1/2
COLUMBUS       CLEAR     59  59 100 CALM      30.11R FOG
FRANKFORT +    CLOUDY    64  63  95 SE3       30.13S FOG
6HR MIN TEMP:  62; 6HR MAX TEMP:  68;

GREENWOOD *+   CLEAR     70  64  83 E5        30.12R
INDIANAPOLIS   CLEAR     69  62  78 NE5       30.11R
6HR MIN TEMP:  66; 6HR MAX TEMP:  73;

-EAGLE CREEK   CLEAR     66  61  84 CALM      30.11R
6HR MIN TEMP:  65; 6HR MAX TEMP:  71;

KOKOMO +       CLEAR     62  59  90 CALM      30.14R
6HR MIN TEMP:  61; 6HR MAX TEMP:  68;

MARION +       CLEAR     61  59  94 CALM      30.14R
MT COMFORT *+  CLEAR     59  57  94 CALM      30.12S
SHELBYVILLE    CLEAR     63  58  83 E5        30.11R
6HR MIN TEMP:  63; 6HR MAX TEMP:  66;

ZIONSVILLE +   CLEAR     60  60  99 CALM      30.13S
6HR MIN TEMP:  60; 6HR MAX TEMP:  64;


$$

INZ033-034-041-042-049-050-058-059-241300-
EAST CENTRAL INDIANA

CITY           SKY/WX    TMP DP  RH WIND       PRES   REMARKS
MUNCIE         CLEAR     60  57  89 CALM      30.14R
6HR MIN TEMP:  59; 6HR MAX TEMP:  64;

RICHMOND +     CLEAR     59  55  88 E7        30.15R FOG

$$

INZ060-061-067>069-081>083-085>088-241300-
SOUTHWEST INDIANA

CITY           SKY/WX    TMP DP  RH WIND       PRES   REMARKS
EVANSVILLE     CLEAR     64  62  93 CALM      30.07R
6HR MIN TEMP:  63; 6HR MAX TEMP:  67;

HUNTINGBURG +  CLEAR     63  62  97 CALM      30.08R FOG
6HR MIN TEMP:  62; 6HR MAX TEMP:  67;

WASHINGTON +   CLEAR     61  60  94 CALM      30.08R FOG
6HR MIN TEMP:  61; 6HR MAX TEMP:  64;


$$

INZ062-063-066-070>080-084-089>092-241300-
SOUTH CENTRAL AND SOUTHEAST INDIANA

CITY           SKY/WX    TMP DP  RH WIND       PRES   REMARKS
BLOOMINGTON    CLEAR     61  58  90 CALM      30.10R
6HR MIN TEMP:  60; 6HR MAX TEMP:  65;

MADISON *+     CLEAR     63  59  88 CALM      30.12R
SEYMOUR +      FOG       61  61 100 CALM      30.10R VSB 1/4

$$




USA.gov is the U.S. government's official web portal to all federal, state and local government web resources and services.